STARLINK-36716, 67699

Orbit data source: Space-Track

STARLINK-36716, 67699 is a payload satellite owned by SpaceX/Seattle (US) in SSO that was launched on Sat, 07 Feb 2026 UTC via an FALCON 9 launch vehicle from the Air Force Western Test Range (AFWTR). Payload-class satellites include a variety of spacecraft equipped with specific instruments for various scientific and technological missions. These include communications satellites like Starlink; space stations such as the ISS; scientific satellites like the Hubble; Earth observation satellites from companies like Planet Labs, Umbra, and HawkEye 360; GPS; miniature CubeSats for education and research; and military/defense satellites.

Loading next visibility...
Identifier
67699, 2026-025G
Orbit
SSO
Country
Flag of USUS
Related business
Manufacturer
SpaceX/Seattle
Mission
Operational spacecraft
Bus & Motor
STARLINK V2MO, Unknown motor
Mass
575 kg wet, ~530 kg dry
Launch date (UTC)
2026-02-07 (2 months ago)
Launch vehicle
FALCON 9
Launch site
Air Force Western Test Range (AFWTR)
Object type
Payload
Rocket body
Debris
Shape & HBR
Unknown shape, 17.7 m
Radar Cross Section
RCS unknown

Expand to show TLE details & history
Last TLE update: 19 hours ago

TLE from 19 hours ago
0 STARLINK-36716
1 67699U 26025G   26103.56661990  .00015119  00000-0  46963-3 0  9994
2 67699  97.2854 215.7031 0001135 100.6456 259.4914 15.33448596 11368
Epoch: 2026-04-13T13:35Z
TLE epoch observation values (Epoch: 2026-04-13T13:35:55.959Z)
Latitude
-0.00008°
Longitude
169.96457°
Altitude
468.786 km
Speed
7.632 km/s
True Right ascension
14h 22m 48s
True Declination
0° 00' 00"
Sunlit
Object was in full shadow at epoch
Visualization orbit readout
Latitude
Unknown
Longitude
Unknown
Altitude
Unknown
Speed
Unknown
Apparent Right ascension
Unknown
Apparent Declination
Unknown
Sunlit
N/A
Visualization observer readout
Local Sidereal Time
15:09:53
Azimuth
Unknown
Elevation
Unknown
Doppler factor
Unknown
Orbital elements
Apogee altitude
463.252 km
Perigee altitude
461.699 km
Semi-major axis
6,840.612 km
Eccentricity
0.00011
Inclination
97.2854°
RAAN
215.7031°
Arg. of periapsis
100.6456°
True anomaly
259.47861°
Mean anomaly
259.4914°
Eccentric anomaly
259.48501°
Mean motion
3.8362 °/min
Orbital period
93.84 mins
BSTAR
0.00046963
Loading maneuver chart data...
Computing Atmospheric mass density...
Loading historical data...
Loading historical data...
Loading historical data...
Loading historical data...
Loading historical data...
Loading historical data...
Loading historical data...

Documentation

Showing up to 5 results
|